Location: Ipswich
(52.0579°N, 1.1528°E)
Time: 20:56:25
(UTC+01:00)

ISS - Pass Details

Date: 19 May 2026
Orbit: 414 x 424 km, 51.6° (Epoch: 15 May)

Event Time Altitude Azimuth Distance (km) Brightness Sun altitude
Rises 22:22:37 0° 282° (WNW) 2,355 0.9 -11.0°
Reaches altitude 10° 22:24:47 10° 275° (W) 1,491 -0.4 -11.2°
Maximum altitude 22:27:56 40° 204° (SSW) 632 -3.1 -11.5°
Enters shadow 22:29:50 20° 145° (SE) 1,029 -2.4 -11.6°
